Weather History for KISW - March, 2012

Change the Weather History Date:

Thursday, March 1, 2012

  Actual Average Record
Temperature  
Mean Temperature 32 °F -  
Max Temperature 33 °F 36 °F 59 °F (1992)
Min Temperature 30 °F 15 °F -34 °F (1962)
Degree Days  
Heating Degree Days 34    
Moisture  
Dew Point 27 °F    
Average Humidity 84    
Maximum Humidity 93    
Minimum Humidity 78    
Precipitation  
Precipitation 0.00 in - - ()
Sea Level Pressure  
Sea Level Pressure 29.77 in    
Wind  
Wind Speed 6 mph (West)    
Max Wind Speed 12 mph    
Max Gust Speed -    
Visibility 10 miles    
Events      
Averages and records for this station are not official NWS values.
T = Trace of Precipitation, MM = Missing Value Source: NWS Daily Summary

Daily Weather History Graph

Daily Weather History Graph

Search for Another Location

Airport or City:

Trip Planner

Search our weather history database for the weather conditions in past years. The results will help you decide how hot, cold, wet, or windy it might be!

Date:

Astronomy

Mar. 01, 2012 Rise Set
Actual Time 6:35 AM CST 5:48 PM CST
Civil Twilight 6:06 AM CST 6:17 PM CST
Nautical Twilight 5:33 AM CST 6:50 PM CST
Astronomical Twilight 4:59 AM CST 7:24 PM CST
Moon 10:57 AM CST (3/1) 1:45 AM CST (3/1)
Length of Visible Light 12h 10m
Length of Day
11h 12m
First Quarter, 57% of the Moon is Illuminated
Mar 1
First Quarter
Mar 8
Full
Mar 14
Last Quarter
Mar 22
New
Mar 30
First Quarter

Hourly Weather History & Observations

Time (CST) Temp. Windchill Dew Point Humidity Pressure Visibility Wind Dir Wind Speed Gust Speed Precip Events Conditions
12:03 AM 33.8 °F 25.3 °F 28.4 °F 81% 29.58 in 10.0 mi NW 11.5 mph - N/A   Overcast
12:38 AM 30.2 °F 21.9 °F 26.6 °F 86% 29.59 in 10.0 mi NNW 9.2 mph - N/A   Scattered Clouds
12:54 AM 30.0 °F 22.4 °F 26.1 °F 85% 29.63 in 10.0 mi NNW 8.1 mph - N/A   Partly Cloudy
1:06 AM 30.2 °F 24.3 °F 26.6 °F 86% 29.61 in 10.0 mi WNW 5.8 mph - N/A   Mostly Cloudy
3:54 AM 30.0 °F 22.4 °F 26.1 °F 85% 29.71 in 10.0 mi NW 8.1 mph - N/A   Overcast
4:54 AM 30.9 °F 24.3 °F 25.0 °F 79% 29.74 in 10.0 mi NNW 6.9 mph - N/A   Overcast
6:54 AM 30.0 °F 25.2 °F 25.0 °F 82% 29.77 in 10.0 mi NW 4.6 mph - N/A   Overcast
7:22 AM 30.2 °F - 24.8 °F 80% 29.74 in 10.0 mi Calm Calm - N/A   Overcast
7:54 AM 30.0 °F 26.5 °F 25.0 °F 82% 29.78 in 10.0 mi North 3.5 mph - N/A   Overcast
8:54 AM 30.0 °F 25.2 °F 26.1 °F 85% 29.81 in 10.0 mi WSW 4.6 mph - N/A   Overcast
10:54 AM 30.9 °F 27.5 °F 26.1 °F 82% 29.82 in 10.0 mi SW 3.5 mph - N/A   Overcast
11:54 AM 32.0 °F 25.6 °F 26.1 °F 79% 29.83 in 10.0 mi WSW 6.9 mph - N/A   Overcast
12:54 PM 33.1 °F 28.7 °F 27.0 °F 78% 29.81 in 10.0 mi WSW 4.6 mph - N/A   Overcast
1:54 PM 33.1 °F 28.7 °F 27.0 °F 78% 29.79 in 10.0 mi WSW 4.6 mph - N/A   Overcast
3:54 PM 33.1 °F 26.9 °F 27.0 °F 78% 29.81 in 10.0 mi SW 6.9 mph - N/A   Overcast
4:54 PM 32.0 °F 25.6 °F 27.0 °F 82% 29.82 in 10.0 mi SSW 6.9 mph - N/A   Overcast
5:54 PM 32.0 °F - 28.0 °F 85% 29.81 in 10.0 mi Calm Calm - N/A   Overcast
6:13 PM 30.2 °F - 28.4 °F 93% 29.78 in 10.0 mi Calm Calm - N/A   Overcast
6:42 PM 30.2 °F - 28.4 °F 93% 29.77 in 10.0 mi Calm Calm - N/A   Overcast
6:54 PM 30.9 °F - 28.0 °F 89% 29.81 in 10.0 mi Calm Calm - N/A   Overcast
7:54 PM 30.9 °F - 28.0 °F 89% 29.81 in 10.0 mi Calm Calm - N/A   Overcast
8:54 PM 30.9 °F 27.5 °F 27.0 °F 85% 29.84 in 10.0 mi SSW 3.5 mph - N/A   Overcast
9:54 PM 30.9 °F 27.5 °F 27.0 °F 85% 29.84 in 10.0 mi South 3.5 mph - N/A   Overcast
10:54 PM 30.9 °F - 27.0 °F 85% 29.84 in 10.0 mi Calm Calm - N/A   Overcast
11:54 PM 30.0 °F - 28.0 °F 92% 29.83 in 10.0 mi Calm Calm - N/A   Overcast